Weather History for Holland, MI

Change the Weather History Date:

Monday, December 31, 2012

  Actual Average Record
Temperature  
Mean Temperature 33 °F 28 °F  
Max Temperature 38 °F 33 °F 58 °F (1965)
Min Temperature 27 °F 22 °F -16 °F (1963)
Degree Days  
Heating Degree Days 32 37  
Month to date heating degree days 863 1045  
Since 1 July heating degree days 2104 2268  
Cooling Degree Days 0 0  
Month to date cooling degree days 0 0  
Year to date cooling degree days 1067 693  
Moisture  
Dew Point 23 °F    
Average Humidity 70    
Maximum Humidity 81    
Minimum Humidity 58    
Precipitation  
Precipitation 0.00 in 0.06 in 0.75 in (1967)
Month to date precipitation 2.54 2.30  
Year to date precipitation 33.38 36.46  
Sea Level Pressure  
Sea Level Pressure 30.02 in    
Wind  
Wind Speed 13 mph (West)    
Max Wind Speed 31 mph    
Max Gust Speed 38 mph    
Visibility 10 miles    
Events      
T = Trace of Precipitation, MM = Missing Value Source: NWS Daily Summary

Daily Weather History Graph

Daily Weather History Graph

Search for Another Location

Airport:

Trip Planner

Search our weather history database for the weather conditions in past years. The results will help you decide how hot, cold, wet, or windy it might be!

Date:

Astronomy

Dec. 31, 2012 Rise Set
Actual Time 8:14 AM EST 5:20 PM EST
Civil Twilight 7:42 AM EST 5:52 PM EST
Nautical Twilight 7:07 AM EST 6:28 PM EST
Astronomical Twilight 6:32 AM EST 7:02 PM EST
Moon 8:55 PM EST (12/31) 9:51 AM EST (12/31)
Length of Visible Light 10h 10m
Length of Day
9h 05m
Waning Gibbous, 90% of the Moon is Illuminated
Dec 31
Waning Gibbous
Jan 4
Last Quarter
Jan 11
New
Jan 18
First Quarter
Jan 26
Full

Hourly Weather History & Observations

Time (EST) Temp. Windchill Dew Point Humidity Pressure Visibility Wind Dir Wind Speed Gust Speed Precip Events Conditions
12:53 AM 28.0 °F 17.5 °F 21.0 °F 75% 30.10 in 9.0 mi South 12.7 mph - N/A   Clear
1:53 AM 28.9 °F 18.6 °F 21.0 °F 72% 30.06 in 10.0 mi South 12.7 mph - N/A   Clear
2:53 AM 30.0 °F 21.1 °F 21.9 °F 72% 30.04 in 10.0 mi South 10.4 mph - N/A   Clear
3:53 AM 30.9 °F 22.2 °F 23.0 °F 72% 30.03 in 10.0 mi South 10.4 mph - N/A   Clear
4:53 AM 36.0 °F 26.3 °F 28.0 °F 73% 30.00 in 10.0 mi SW 16.1 mph 27.6 mph N/A   Clear
5:53 AM 37.0 °F 25.6 °F 28.0 °F 70% 30.00 in 10.0 mi WSW 24.2 mph 36.8 mph 0.02 in   Clear
6:53 AM 37.0 °F 25.9 °F 28.0 °F 70% 29.99 in 10.0 mi WSW 23.0 mph 31.1 mph N/A   Clear
7:53 AM 37.9 °F 27.9 °F 27.0 °F 65% 29.98 in 10.0 mi West 19.6 mph 33.4 mph N/A   Mostly Cloudy
8:34 AM 37.4 °F 26.6 °F 26.6 °F 65% 29.95 in 10.0 mi West 21.9 mph 29.9 mph N/A   Overcast
8:53 AM 37.9 °F 28.2 °F 27.0 °F 65% 29.98 in 10.0 mi West 18.4 mph 31.1 mph N/A   Mostly Cloudy
9:53 AM 37.9 °F 28.5 °F 27.0 °F 65% 29.99 in 10.0 mi West 17.3 mph 26.5 mph N/A   Mostly Cloudy
10:53 AM 37.0 °F 28.1 °F 27.0 °F 67% 30.01 in 10.0 mi West 15.0 mph 20.7 mph N/A   Overcast
11:53 AM 37.0 °F 28.1 °F 27.0 °F 67% 29.99 in 10.0 mi West 15.0 mph 19.6 mph N/A   Overcast
12:53 PM 36.0 °F 29.0 °F 26.1 °F 67% 29.98 in 10.0 mi WNW 9.2 mph - N/A   Overcast
1:53 PM 34.0 °F 26.0 °F 26.1 °F 73% 29.98 in 10.0 mi WNW 10.4 mph 19.6 mph N/A   Overcast
2:53 PM 33.1 °F 24.9 °F 26.1 °F 75% 29.99 in 9.0 mi WNW 10.4 mph 16.1 mph N/A   Overcast
3:08 PM 33.8 °F 27.0 °F 24.8 °F 70% 29.97 in 8.0 mi WNW 8.1 mph - N/A   Overcast
3:53 PM 32.0 °F 24.2 °F 25.0 °F 75% 30.01 in 8.0 mi WNW 9.2 mph - N/A   Overcast
4:53 PM 30.9 °F 21.7 °F 24.1 °F 76% 30.02 in 8.0 mi WNW 11.5 mph - N/A   Overcast
5:43 PM 30.2 °F 21.9 °F 21.2 °F 69% 30.01 in 10.0 mi NW 9.2 mph - N/A   Overcast
5:53 PM 30.0 °F 22.4 °F 21.9 °F 72% 30.03 in 10.0 mi NW 8.1 mph 16.1 mph N/A   Overcast
6:53 PM 30.0 °F 21.7 °F 21.0 °F 69% 30.05 in 10.0 mi NW 9.2 mph 18.4 mph N/A   Overcast
7:53 PM 28.9 °F 19.8 °F 19.9 °F 69% 30.05 in 10.0 mi WNW 10.4 mph - N/A   Overcast
8:53 PM 28.9 °F 19.8 °F 19.0 °F 67% 30.07 in 10.0 mi NW 10.4 mph 16.1 mph N/A   Overcast
9:53 PM 28.9 °F 25.2 °F 18.0 °F 64% 30.07 in 10.0 mi North 3.5 mph - N/A   Overcast
10:10 PM 28.4 °F 22.2 °F 17.6 °F 64% 30.05 in 10.0 mi Variable 5.8 mph - N/A   Overcast
11:01 PM 28.4 °F - 15.8 °F 59% 30.05 in 10.0 mi Calm Calm - N/A   Overcast
11:53 PM 28.0 °F 24.2 °F 16.0 °F 61% 30.09 in 10.0 mi NNE 3.5 mph - N/A   Overcast